Showing default

GLOBALSTAR M026, 25873

Orbit data source: Space-Track

GLOBALSTAR M026, 25873 is a payload satellite owned by Globalstar (US) in LEO that was launched on Sun, 25 Jul 1999 UTC via a DELTA 7420-10C launch vehicle from the Air Force Eastern Test Range (AFETR). Payload-class satellites include a variety of spacecraft equipped with specific instruments for various scientific and technological missions. These include communications satellites like Starlink; space stations such as the ISS; scientific satellites like the Hubble; Earth observation satellites from companies like Planet Labs, Umbra, and HawkEye 360; GPS; miniature CubeSats for education and research; and military/defense satellites.

Loading next visibility...
Identifier
25873, 1999-041B
Orbit
LEO
Country
Flag of USUS / GLOB
Related business
Manufacturer
SS/Loral
Mission
Non-operational Commercial Communications
Bus & Motor
LS-400, LS-400 AOCS
Mass
450 kg wet, 380 kg dry
Launch date (UTC)
1999-07-25 (27 years ago)
Launch vehicle
DELTA 7420-10C
Launch site
Air Force Eastern Test Range (AFETR)
Object type
Payload
Rocket body
Debris
Shape & HBR
Box + 2 Pan, 6.0 m
Radar Cross Section
5.587 m², Large (>1 m²)

Expand to show TLE details & history
Last TLE update: 13 hours ago

TLE from 13 hours ago
0 GLOBALSTAR M026
1 25873U 99041B   26127.47199139 -.00000041  00000-0  84112-3 0  9994
2 25873  51.9975 166.3134 0001030  83.2651  56.4108 11.06839703184393
Epoch: 2026-05-07T11:19Z
TLE epoch observation values (Epoch: 2026-05-07T11:19:40.056Z)
Latitude
30.73135°
Longitude
-76.46275°
Altitude
2,128.168 km
Speed
6.85 km/s
True Right ascension
21h 15m 05s
True Declination
30° 36' 17"
Sunlit
Object was in daylight at epoch
Visualization orbit readout
Latitude
Unknown
Longitude
Unknown
Altitude
Unknown
Speed
Unknown
Apparent Right ascension
Unknown
Apparent Declination
Unknown
Sunlit
N/A
Visualization observer readout
Local Sidereal Time
08:09:30
Azimuth
Unknown
Elevation
Unknown
Doppler factor
Unknown
Orbital elements
Apogee altitude
2,128.185 km
Perigee altitude
2,126.433 km
Semi-major axis
8,505.446 km
Eccentricity
0.0001
Inclination
51.9975°
RAAN
166.3134°
Arg. of periapsis
83.2651°
True anomaly
56.42063°
Mean anomaly
56.4108°
Eccentric anomaly
56.41572°
Mean motion
2.76693 °/min
Orbital period
130.11 mins
BSTAR
0.00084112
Loading maneuver chart data...
Computing Atmospheric mass density...
Loading historical data...
Loading historical data...
Loading historical data...
Loading historical data...
Loading historical data...
Loading historical data...
Loading historical data...
Other satellites on launch #41 in the year 1999 (1999-07-25 UTC)

Documentation

Showing up to 5 results
|